CAPE
683 1305 1234 1851 1907 2028 2155 2340 2101 2133 1777 1759 1549 1128 815 805 750 732 857 1191 1201 1268 1249 517 915 918 547 243 577 317 214 122 110 151 151 253 192 167 119 121 252 505 875
124 620 1128 1562 1583 2045 2344 2237 2106 2259 1850 1662 1465 1083 952 732 712 664 933 1109 1134 1254 1345 1182 847 1222 962 765 1022 627 197 163 125 50 44 67 53 68 120 105 99 262 414
35 264 815 1219 1492 1528 2368 2249 2223 2314 2101 1737 1626 1558 1357 1154 966 842 931 1115 1286 1379 1361 1429 1080 1131 1346 788 1247 559 361 383 183 59 13 1 0 29 156 196 155 300 199
7 202 393 1005 1358 1362 1870 2230 2069 2238 2277 2118 1664 1657 1319 1341 1199 1022 969 1194 1425 1524 1674 1489 1373 1216 1309 1388 1259 1402 864 1064 685 456 187 145 637 454 299 276 718 192 1073
0 86 344 627 1202 1589 2107 2536 2405 2354 2107 1841 1984 1756 1740 1438 1383 1299 1199 1081 1492 1617 1327 1604 1537 1564 1293 1382 1547 1432 1496 1428 1009 788 850 837 812 984 373 244 389 308 818
0 68 213 387 587 1195 1624 2336 2267 2404 2133 1950 1871 1723 1909 1870 1660 1718 1449 1275 1134 1536 1430 1323 1642 1762 1727 1756 1723 1776 1540 1516 1488 1351 1145 1109 1206 908 839 695 631 622 550
10 55 167 309 422 459 1077 1608 2241 2441 2225 2213 2067 1967 1701 1773 1904 1794 1637 1447 1220 1036 1368 1372 1504 1666 1965 1970 1754 1741 1554 1634 1545 1371 1286 1335 1133 803 793 620 722 609 406
0 28 123 160 324 416 563 840 1326 1921 2367 2106 2024 1895 1905 2082 2040 1915 1738 1857 1412 1185 1220 1562 1311 1615 1618 1907 1975 1625 1740 1673 1526 1559 1466 879 1118 830 848 816 620 357 237
8 0 84 115 160 322 599 776 738 1146 1661 1987 1877 2103 2010 1892 1848 1903 1837 1757 1728 1671 1497 2055 1768 1833 1753 1799 2045 1695 1767 1678 1419 1406 1313 1243 680 790 905 798 630 449 396
0 0 6 35 95 142 252 611 881 974 928 970 1230 1722 2000 2141 1754 1867 1890 1833 1604 1432 1389 1407 1977 1870 1832 1845 1782 1721 1759 1579 1343 1063 1154 1187 1045 964 920 980 885 868 791
1 1 0 0 5 29 85 233 630 870 1020 1204 1214 998 1179 1683 1874 1516 1495 1535 1890 1574 982 644 1075 1641 1772 1907 1588 1667 1546 1535 1357 1167 1001 871 1030 814 789 870 983 979 932
0 0 0 0 0 43 120 303 538 778 971 1015 1362 1540 1136 1152 1459 1705 1847 1531 1743 1691 1158 953 144 253 1031 1690 1602 1586 1360 1330 1168 1149 983 1064 1001 1049 985 845 934 993 917
0 1 0 3 71 199 300 365 583 789 952 1146 1274 1440 1479 1266 1215 1140 1428 1314 1458 1485 1214 1181 464 216 1391 1538 1602 1302 1332 1302 1343 1063 1008 1046 1064 1002 960 1031 918 1015 987
8 3 13 49 191 281 326 406 708 1042 1087 1208 1240 1212 1437 1329 1266 1252 1052 1042 899 863 1081 1347 1061 667 597 1318 1299 1403 1272 1262 1227 1256 1224 1364 1223 1264 1104 1057 1130 937 855
6 5 5 13 185 350 340 430 592 761 873 1021 1092 1126 1006 1155 1412 1318 1155 966 871 831 776 866 937 978 864 1096 1516 1619 1465 1246 1281 1249 1239 1375 1241 1228 1179 1172 1165 858 843
11 25 13 10 8 85 207 359 299 471 763 852 976 1085 1045 1215 1038 1088 925 816 628 563 481 431 409 415 652 813 638 770 1287 1273 1184 1201 1341 1246 1020 896 825 674 618 805 635
33 4 3 9 11 1 5 2 2 3 286 480 669 750 1005 890 891 875 848 795 733 575 417 378 355 268 333 235 264 331 525 744 1218 1304 1267 1140 984 897 1172 487 339 271 254
6 5 9 5 0 0 1 7 3 2 5 146 311 482 502 568 841 874 999 959 831 614 443 391 387 380 345 220 238 133 483 718 932 1079 1212 985 891 1031 929 902 889 604 351
46 18 34 22 0 0 0 9 4 2 8 14 92 147 262 95 549 612 793 995 616 653 671 511 361 364 376 67 0 2 87 308 596 825 728 839 667 292 269 666 663 461 234
89 49 8 0 0 0 6 30 2 18 3 3 7 12 142 227 343 544 857 782 750 596 488 374 238 112 185 49 7 0 61 121 118 87 119 121 169 54 27 130 95 107 55
139 21 15 0 0 20 0 1 10 2 34 54 73 82 107 64 121 710 317 744 505 525 331 187 73 47 18 14 13 0 35 134 141 23 36 0 0 0 0 1 7 12 9
48 10 3 0 0 6 33 0 0 0 36 24 86 149 88 265 246 262 211 335 264 324 206 75 47 15 3 2 11 1 0 73 24 0 2 1 0 0 0 0 0 0 0
0 7 0 2 0 0 51 36 0 0 25 43 60 126 78 82 248 217 141 204 191 331 323 266 192 115 33 0 5 19 21 15 157 3 0 0 0 0 0 0 0 0 0
11 65 47 0 1 0 0 73 0 0 20 15 5 17 1 36 42 190 218 162 150 119 188 250 142 94 47 8 0 0 0 0 0 0 0 0 0 0 2 0 0 0 0
137 57 15 28 30 37 0 23 4 0 30 13 6 0 0 0 19 0 66 12 0 0 71 10 33 23 0 0 0 0 0 0 0 0 0 0 0 2 3 2 2 7 11
16 10 11 73 7 50 86 68 0 0 21 19 8 2 20 19 6 4 2 0 0 0 0 0 0 0 0 0 0 0 0 0 0 0 6 4 1 0 0 0 0 0 0
CIN
-95 -84 -87 -16 -38 -33 -28 -27 -19 -16 -33 -15 -20 -32 -56 -35 -11 -3 -2 -2 -1 -2 -4 -19 -3 -5 -8 -19 -2 -9 -6 -25 -23 -9 -4 -3 -7 -9 -8 -7 -7 -3 -5
-133 -112 -92 -73 -63 -18 -39 -48 -28 -5 -40 -36 -39 -64 -43 -38 -37 -25 -2 -3 -5 -3 -3 -4 -6 -5 -17 -17 -1 -5 -21 -22 -27 -54 -23 -11 -15 -26 -21 -24 -10 -2 -2
-213 -129 -109 -84 -53 -68 -19 -70 -31 -8 -26 -46 -30 -17 -9 -17 -25 -17 -21 -18 -2 -2 -3 -1 -3 -5 -13 -19 -14 -26 -53 -2 -23 -79 -59 -2 0 -2 -9 -9 -12 -5 -2
-83 -151 -120 -91 -57 -83 -30 -50 -43 -12 -4 -3 -16 -15 -42 -28 -22 -33 -24 -10 -25 -11 -3 -2 -4 -5 -1 -5 -5 -14 -33 -15 -11 -10 -60 -51 -12 -8 -4 -10 -21 -574 -4
0 -261 -144 -94 -61 -14 -2 -14 -9 -6 -8 -21 -6 -3 -2 -6 -4 -2 -3 -17 -3 -10 -25 -10 -7 -5 -3 -2 -1 -1 -4 -10 -13 -18 -17 -20 -16 -13 -25 -57 -28 -28 -12
0 -258 -191 -133 -93 -53 -5 -7 -12 -4 -6 -6 -9 -15 -4 -4 -3 -2 -2 -3 -18 -15 -18 -17 -9 -7 -3 -1 -1 -1 -1 -8 -8 -4 -9 -7 -6 -19 -3 -5 -8 -10 -9
-226 -207 -149 -113 -111 -105 -63 -3 -5 0 -2 -1 -3 -7 -15 -9 -8 -10 -1 -3 -4 -27 -36 -34 -11 -8 -1 -2 -1 -1 -3 -2 -1 -15 -5 -2 -2 -21 -24 -27 -22 -3 -4
-4 -163 -126 -113 -58 -53 -75 -65 -27 -2 0 -1 -2 -14 -12 -3 -10 -9 -4 -2 -2 -3 -1 -27 -36 -5 -1 -1 0 -3 -1 -2 -3 -2 -2 -2 -2 -17 -13 -9 -4 -12 -5
-106 0 -100 -82 -91 -41 -33 -38 -64 -53 -14 -1 -1 0 -4 -7 -5 -9 -7 -10 -10 -6 -2 -4 -11 -1 0 0 0 -1 -1 -1 -5 -3 -5 -4 -2 -2 -2 -2 -2 -4 -17
0 0 -2 -121 -68 -52 -34 -28 -16 -22 -52 -50 -27 -3 0 0 -10 -5 -5 -10 -9 -31 -45 -11 -2 -4 -1 0 -1 -1 -2 -3 -2 -2 -8 -5 -9 -4 -2 -1 -8 -9 -9
-3 -1 0 0 -51 -90 -41 -29 -17 -12 -12 -12 -20 -41 -28 -1 0 -28 -26 -9 -5 -11 -40 -31 -15 -5 -5 -1 -3 -1 -1 -3 -6 -8 -3 -6 -11 -3 -2 -2 -1 -1 -1
0 0 0 0 0 -96 -76 -28 -8 -6 -2 -10 -5 -7 -38 -32 -6 -2 -4 -7 -2 -3 -6 -22 -13 -82 -14 -6 -4 -1 -1 -4 -7 -6 -7 -3 -2 -8 -6 -8 -3 -1 -1
0 -2 0 -20 -62 -58 -62 -66 -16 -3 -2 -1 -1 -1 -2 -12 -19 -32 -11 -4 0 0 -2 -4 -39 -4 -4 -2 -2 -6 -2 -3 -2 -12 -3 -5 -4 -7 -5 -7 -4 -1 -1
-2 -3 -26 -67 -50 -65 -75 -66 -10 -8 -12 -3 -3 -4 -1 -4 -8 -13 -23 -16 -43 -64 -1 -1 -2 -4 -13 -4 -3 -1 -5 -6 -3 -3 -5 -1 -5 -4 -10 -9 -7 -5 -2
-3 -2 -2 -24 -68 -43 -52 -22 -1 -1 -2 -1 -1 -1 -12 -3 -1 -1 -18 -34 -35 -37 -30 -58 -30 -12 -8 0 0 -1 -1 -5 -3 -3 -2 -2 -3 -3 -6 -2 -10 -12 -2
-2 -3 -1 0 0 -109 -44 0 -1 0 0 0 0 0 -2 0 -5 -1 -18 -33 -48 -66 -63 -69 -96 -55 -13 -11 -32 -24 0 -1 -4 -5 -4 -3 -5 -6 -11 -26 -29 -13 -10
-2 -2 -1 0 0 0 -18 0 0 0 -2 -1 0 -7 -1 -1 -1 -1 -1 -1 -1 -9 -36 -19 -37 -82 -57 -48 -67 -72 -21 -2 -2 -2 -5 -4 -2 -3 -2 -48 -35 -25 -29
-1 -1 0 -1 0 0 0 0 0 0 -71 -22 -25 -5 -9 -9 -1 -1 0 -3 -3 -8 -26 -10 -4 -5 -10 -40 -50 -54 -1 0 0 0 -3 -4 -7 -2 -2 -1 -1 -2 -5
-10 0 0 0 0 0 0 0 0 0 -44 -61 -25 -15 -4 -3 -1 -4 -23 0 -14 -7 -1 -1 -3 0 0 -31 0 -13 -22 -2 0 0 -1 -4 -10 -42 -48 -3 0 0 -40
-5 -4 -4 0 0 0 -4 -4 -8 -3 -1 -65 -26 -2 -7 -1 -2 -2 0 0 0 0 0 0 -1 -37 -3 -50 -101 0 -23 -24 -10 -41 -16 -11 -22 -76 -83 -31 -36 -38 -64
0 -1 -12 0 0 -8 0 0 -4 -20 -8 -7 -6 -9 -1 -4 -19 -5 -29 0 -4 0 0 -10 -64 -87 -65 -122 -158 0 -87 -13 0 -6 -15 0 0 0 -129 -47 -42 -43 -42
-5 0 -3 0 0 -28 -4 0 0 0 -7 -10 -9 -1 -34 -3 -12 -14 -21 -10 -7 -10 -35 -111 -173 -310 -401 -185 -241 -156 0 -10 -16 0 -3 -2 0 0 0 0 -19 -17 0
0 -7 0 -31 0 0 -16 -5 0 0 -43 -20 -14 -2 -24 -46 -24 -13 -5 -10 -17 -16 -20 -12 -5 -15 -79 -37 -372 -291 -170 -80 0 -5 0 0 0 0 0 0 0 0 0
-8 -8 -4 0 -5 -6 0 -21 0 0 -46 -50 -34 -31 -7 -60 -45 -9 -8 -3 -6 -3 -2 -3 -5 -1 -10 -31 -1 0 0 0 0 0 0 0 0 0 -26 0 0 0 0
-11 -23 -17 -6 -11 -25 0 -89 -45 0 -40 -1 -1 0 0 0 -4 -10 -15 -67 0 0 -4 -54 -18 -12 0 0 0 0 0 0 0 0 0 0 0 -2 -1 -1 -1 -7 -8
-73 -15 -13 -6 0 -6 -4 -23 -20 0 -4 -2 -1 -3 -3 -2 -2 -2 -2 0 0 0 0 0 0 0 0 0 0 0 0 0 0 0 -1 -1 -1 0 0 0 0 0 -1
Wind_Speed
18 17 15 11 2 4 7 8 10 9 12 13 12 11 12 12 16 15 7 4 4 7 6 5 8 9 14 17 13 15 21 19 26 25 28 25 21 27 26 23 23 20 15
19 19 18 16 15 5 7 9 10 10 10 13 11 9 8 10 11 15 8 6 8 8 8 8 8 7 13 23 16 14 17 21 20 23 25 25 25 25 20 22 28 24 21
20 20 21 22 22 13 8 9 11 12 12 12 10 9 7 7 7 10 8 12 10 8 9 8 8 9 9 9 13 15 17 26 19 15 24 21 26 24 15 11 15 20 18
20 21 23 24 25 19 5 8 11 14 15 15 13 13 12 11 10 9 9 10 15 13 12 13 12 14 7 7 7 7 13 34 25 19 18 30 24 21 21 21 23 23 18
22 23 23 24 24 20 9 7 10 15 19 19 20 17 15 13 10 12 10 10 10 14 17 15 15 13 14 8 8 8 8 7 11 21 19 22 24 24 26 31 28 25 20
22 23 24 23 23 23 20 12 12 16 21 24 25 25 24 19 16 13 12 13 12 11 16 17 16 16 15 11 9 9 9 9 12 13 13 16 18 18 17 19 26 30 30
22 23 24 24 23 23 22 21 14 18 20 24 28 30 31 30 25 24 17 13 15 14 13 17 16 16 17 14 11 10 12 9 9 10 9 12 13 16 19 21 21 21 19
25 24 24 24 22 23 22 22 23 26 24 25 29 31 32 35 33 29 26 21 18 18 17 15 15 15 14 14 11 13 13 11 10 10 10 8 9 8 7 7 10 16 19
26 26 25 26 25 23 23 25 26 27 28 28 28 30 32 34 37 37 34 35 30 27 23 19 17 15 15 14 12 12 10 12 11 11 10 9 8 12 9 10 12 17 25
27 28 28 27 25 24 25 28 29 29 28 29 29 29 30 32 35 37 41 39 38 37 34 28 24 22 19 17 14 13 11 12 12 9 8 9 10 8 9 8 9 15 16
31 32 31 30 27 29 31 31 31 30 28 29 28 29 31 31 32 35 36 44 43 39 36 41 47 28 25 25 19 15 14 11 11 11 10 9 8 8 8 8 9 7 10
33 33 32 31 30 31 33 31 29 29 32 33 33 28 28 31 32 33 34 35 37 36 34 32 35 42 38 31 28 20 18 17 16 13 12 12 10 10 10 13 10 7 7
31 32 32 32 32 36 30 30 30 27 32 31 33 33 28 29 33 35 33 34 33 35 31 33 24 19 50 41 28 23 22 20 17 17 15 15 14 14 12 11 12 10 9
30 32 34 36 41 38 35 35 29 31 36 37 35 35 31 29 32 33 33 33 34 37 31 30 27 18 20 27 30 26 25 25 21 19 18 19 18 17 16 16 14 13 12
31 34 37 40 43 38 37 36 33 32 32 35 35 36 36 34 31 29 29 30 31 33 32 31 29 28 29 25 28 29 32 26 26 28 22 21 19 17 16 17 15 14 13
31 33 37 40 42 40 38 32 30 30 32 33 34 36 35 24 22 20 19 21 25 26 28 29 32 32 30 27 29 28 29 31 29 27 25 25 23 23 21 19 18 17 15
32 34 36 37 39 37 33 29 27 27 28 28 30 32 24 18 16 15 18 21 22 23 24 27 29 30 30 31 30 30 33 34 33 31 30 29 25 24 24 24 24 24 21
29 31 34 33 32 31 29 28 26 26 26 27 28 27 23 21 18 14 15 19 20 20 22 25 25 26 26 26 28 29 31 34 34 32 30 30 27 26 24 25 23 23 22
27 30 30 30 30 28 29 27 26 26 27 29 31 30 27 19 15 16 16 17 17 18 20 22 24 24 23 20 21 24 27 29 30 27 27 25 23 23 24 25 25 25 26
26 26 28 29 31 28 27 25 26 29 26 20 21 22 16 20 11 15 14 14 14 15 15 15 16 18 20 17 16 15 18 23 25 25 20 18 18 22 19 23 26 28 28
22 23 25 26 29 26 24 24 24 19 12 11 13 16 9 10 11 11 12 11 10 9 9 11 13 14 15 16 14 10 14 17 20 17 12 17 16 19 21 22 25 25 23
18 20 23 25 25 24 23 22 20 19 15 14 13 13 11 10 10 11 10 11 9 7 9 11 12 14 13 13 15 16 18 20 17 12 10 14 18 18 18 14 20 17 18
16 17 21 20 22 23 22 22 23 19 19 19 16 14 14 15 13 11 12 12 13 13 11 11 11 11 12 12 12 11 10 12 12 12 11 11 11 10 12 13 11 15 18
13 15 20 17 17 18 21 20 21 21 18 17 16 15 15 15 15 15 17 16 16 16 15 13 13 12 12 12 12 12 12 12 12 11 13 14 12 14 10 7 10 10 10
13 14 21 17 15 14 21 21 21 20 19 17 17 17 16 16 16 16 16 16 16 16 16 16 15 14 13 13 14 14 14 15 16 15 12 13 13 12 9 11 14 11 10
12 14 15 12 18 18 17 19 20 19 18 18 16 16 17 17 17 16 15 16 15 16 16 16 15 15 13 13 15 15 16 16 17 18 16 15 16 17 15 16 17 18 18
Wind_Direction
6 1 338 327 293 214 201 192 181 173 166 171 176 175 175 172 175 173 174 191 196 184 226 235 272 274 278 276 281 282 273 274 263 265 260 273 284 272 276 284 284 291 301
6 357 353 347 316 269 234 223 210 200 189 183 185 195 194 182 182 180 187 210 189 190 190 203 266 258 272 270 280 276 278 272 273 270 269 272 276 279 285 284 276 288 295
359 354 348 337 326 316 237 233 232 228 215 207 209 202 231 244 206 199 215 195 200 210 203 207 212 263 268 258 271 273 275 265 273 275 271 279 275 279 291 291 297 293 298
1 353 344 334 331 337 303 258 256 248 238 228 228 217 212 218 234 226 218 204 193 197 200 198 198 195 221 226 221 207 187 220 268 276 277 268 287 285 285 296 296 286 308
356 354 349 341 338 338 335 308 278 263 256 249 244 245 234 234 232 252 247 224 218 205 197 199 198 199 199 238 241 238 227 230 270 275 279 279 279 285 287 284 294 302 305
359 355 346 346 341 335 331 325 306 289 274 264 259 255 258 248 254 239 246 253 239 222 207 202 203 199 200 212 221 222 238 246 270 276 277 282 282 285 292 296 295 292 293
355 352 348 347 341 335 330 322 314 302 289 278 268 263 261 262 256 263 250 239 252 248 219 208 210 204 200 203 209 216 210 229 229 243 259 274 278 286 291 293 299 304 308
346 346 347 346 346 339 328 321 313 303 297 288 280 272 266 262 260 259 258 253 257 258 259 223 217 222 217 207 216 203 201 209 215 221 225 235 273 267 250 269 295 305 305
342 342 343 341 340 337 329 316 309 304 299 294 289 280 272 267 263 261 261 260 262 265 261 250 242 234 232 234 222 219 219 202 203 201 216 226 239 288 285 284 295 302 301
340 338 337 337 336 331 324 311 303 299 298 296 291 287 281 273 268 264 261 260 260 260 262 260 256 257 254 244 233 240 231 211 208 213 222 215 211 218 216 288 296 300 300
336 335 334 333 333 326 318 310 304 301 298 294 292 289 283 280 274 268 265 259 260 263 264 264 252 264 260 260 252 240 254 238 247 233 222 227 241 273 285 290 296 288 299
335 335 335 335 334 328 318 314 309 304 297 291 288 288 286 278 275 272 267 266 265 267 265 256 264 254 261 262 262 255 257 259 265 261 250 266 269 266 276 297 290 280 290
336 337 336 335 330 323 321 315 307 303 296 294 289 282 284 279 274 271 271 272 271 272 273 266 246 245 248 256 263 262 263 265 263 265 266 274 276 282 287 288 294 293 296
338 338 338 335 324 322 320 312 308 303 291 289 289 279 280 279 274 272 272 272 275 275 277 276 286 268 241 255 262 267 269 268 267 266 267 274 275 279 283 288 292 297 299
338 339 339 335 326 326 321 313 305 302 301 291 289 279 274 279 277 273 272 274 273 275 279 281 284 280 275 284 270 271 270 271 271 273 271 272 272 275 277 285 289 290 291
338 340 339 337 333 329 323 323 312 308 302 293 290 280 275 280 275 274 273 277 278 279 282 281 277 276 275 277 272 271 274 273 272 272 273 272 275 277 277 277 280 286 285
341 340 339 339 338 337 334 327 317 314 307 302 302 289 277 270 271 277 277 279 280 278 281 280 278 279 277 272 271 272 272 273 273 274 274 273 274 274 277 276 278 279 288
344 343 341 345 349 357 333 323 323 321 314 311 304 302 285 272 269 278 286 285 281 280 279 278 280 282 283 279 277 275 274 274 275 275 274 273 273 276 274 277 278 277 282
346 342 343 347 350 351 328 327 330 323 321 313 301 287 286 292 274 281 288 291 287 284 282 283 282 284 286 289 285 279 278 277 279 281 279 277 274 274 279 277 277 281 285
345 347 347 349 351 339 318 326 337 332 318 303 290 294 300 253 280 279 298 304 302 297 297 298 296 295 294 294 292 292 291 284 282 283 285 283 280 280 283 283 280 284 287
350 355 353 349 351 323 317 317 325 319 277 240 259 286 236 277 285 290 293 307 316 333 342 327 317 313 309 302 293 297 293 294 293 295 294 289 277 285 288 290 288 287 295
359 359 352 350 352 316 317 317 302 295 285 279 279 290 296 308 309 315 300 291 326 328 314 309 320 334 336 326 300 284 280 289 290 310 313 294 286 291 295 309 294 300 300
4 10 5 6 2 315 311 312 311 293 301 313 296 293 301 317 313 307 309 330 332 359 337 336 348 345 351 347 2 4 341 315 320 319 321 312 315 319 317 314 319 310 303
10 10 352 19 32 19 316 309 311 310 289 290 295 291 298 301 314 307 335 353 342 345 26 27 23 17 5 4 4 9 10 351 335 330 318 313 321 314 335 0 338 333 323
7 12 346 6 35 52 338 322 316 304 291 293 296 296 312 312 324 337 335 345 345 338 333 325 338 334 349 341 340 342 340 334 321 318 331 331 327 330 353 336 325 333 338
17 19 22 66 9 29 24 322 308 307 297 295 317 307 309 327 333 337 351 351 349 341 341 338 340 340 358 351 347 343 339 335 323 312 321 328 322 321 328 327 324 322 324